Preview of NWS' New Version of Forecast
This preview is not operational and should not be used for support decisions.

Regional Weather Roundup (RWR)

Issued by National Weather Service (NWS)

                            
000
ASUS46 KPQR 251310
RWROR 

OREGON REGIONAL WEATHER ROUNDUP
NATIONAL WEATHER SERVICE PORTLAND OR
600 AM PDT SUN AUG 25 2019

NOTE: "FAIR" INDICATES FEW OR NO CLOUDS BELOW 12,000 FEET WITH
NO SIGNIFICANT WEATHER AND/OR OBSTRUCTIONS TO VISIBILITY.

ORZ001>013-251400-
NORTHWEST OREGON

  
CITY           SKY/WX    TMP DP  RH WIND       PRES   REMARKS
ASTORIA        CLOUDY    54  52  93 S3        30.13R                  
TILLAMOOK      CLOUDY    48  46  93 CALM      30.15S FOG              
NEWPORT        CLEAR     48  48 100 CALM      30.15R FOG              
FLORENCE       FAIR      50  50 100 CALM      30.11R                  
PORTLAND       PTCLDY    60  52  74 NW6       30.12R                  
VANCOUVER WA   CLEAR     56  50  80 CALM      30.12R                  
SCAPPOOSE      CLEAR     54  51  90 CALM      30.11R                  
HILLSBORO      CLEAR     56  50  80 W5        30.12R                  
AURORA         CLEAR     59  51  75 N6        30.13R                  
MCMINNVILLE    CLEAR     54  51  90 CALM      30.12R                  
SALEM          CLEAR     56  51  84 N6        30.11R                  
CORVALLIS      CLEAR     56  53  90 NW5       30.12R                  
EUGENE         PTCLDY    58  52  80 N6        30.11R                  
CRESWELL       CLOUDY    61  55  82 CALM      30.09R                  
$$

ORZ021-028-251400-
SOUTHWEST OREGON

  
CITY           SKY/WX    TMP DP  RH WIND       PRES   REMARKS
NORTH BEND     CLOUDY    55  55 100 CALM      30.13R                  
BROOKINGS      FOG       52  52 100 CALM      30.03S VSB 1/4          
ROSEBURG       CLOUDY    63  56  78 CALM      30.09S                  
SEXTON SUMMIT  LGT RAIN  53  53 100 N9        30.13R VSB 1/4          
GRANTS PASS    FAIR      57  52  82 CALM      30.10R                  
MEDFORD        CLEAR     60  49  66 CALM      30.05R                  
$$

ORZ014>016-041-251400-
COLUMBIA GORGE

  
CITY           SKY/WX    TMP DP  RH WIND       PRES   REMARKS
TROUTDALE      CLEAR     59  53  80 CALM      30.12R                  
HOOD RIVER     CLEAR     61  52  72 NW14G21   30.04S                  
THE DALLES     CLEAR     64  53  67 NW14      30.00R                  
$$

ORZ029>031-041-044-049-050-061>064-502-503-505>511-251400-
EASTERN OREGON

  
CITY           SKY/WX    TMP DP  RH WIND       PRES   REMARKS
MADRAS         CLEAR     46  45  93 S6        30.09S                  
REDMOND        CLEAR     47  41  80 SE5       30.09R                  
BEND           CLEAR     50  45  81 S3        30.10R                  
PRINEVILLE     CLEAR     48  45  87 CALM      30.09R                  
KLAMATH FALLS  CLEAR     48  44  86 CALM      30.13R                  
LAKEVIEW       CLEAR     52  41  66 SW6       30.17R                  
HERMISTON      CLEAR     64  53  67 SW13      29.96S                  
PENDLETON      CLEAR     63  51  65 CALM      29.99S                  
JOHN DAY       CLEAR     55  45  69 SW5       30.10R                  
MEACHAM        MOCLDY    55  48  77 CALM      30.07R                  
LA GRANDE      CLEAR     49  42  77 MISG      30.07R                  
BAKER CITY     CLEAR     58  45  62 VRB6      30.07R                  
BURNS          CLEAR     42  33  70 N6        30.10R                  
ROME             N/A     57  29  34 S10       30.06R                  
ONTARIO        CLEAR     64  42  44 W6        29.99R                  
$$